29.03.2024;11:39;5,33;
29.03.2024;11:24;5,331;
29.03.2024;11:09;5,331;
29.03.2024;10:54;5,331;
29.03.2024;10:39;5,331;
29.03.2024;10:24;5,331;
29.03.2024;10:09;5,331;
29.03.2024;09:54;5,331;
29.03.2024;09:39;5,331;
29.03.2024;09:24;5,331;
29.03.2024;09:09;5,332;
29.03.2024;08:54;5,331;
29.03.2024;08:39;5,331;
29.03.2024;08:24;5,331;
29.03.2024;08:09;5,331;
29.03.2024;07:54;5,331;
29.03.2024;07:24;5,331;
29.03.2024;06:54;5,331;
29.03.2024;06:39;5,332;
29.03.2024;06:24;5,331;
29.03.2024;06:09;5,331;
29.03.2024;05:54;5,331;
29.03.2024;05:39;5,331;
29.03.2024;05:24;5,331;
29.03.2024;05:09;5,331;
29.03.2024;04:54;5,332;
29.03.2024;04:39;5,332;
29.03.2024;04:24;5,332;
29.03.2024;04:09;5,332;
29.03.2024;03:54;5,332;
29.03.2024;03:39;5,332;
29.03.2024;03:24;5,332;
29.03.2024;03:09;5,332;
29.03.2024;02:54;5,332;
29.03.2024;02:39;5,333;
29.03.2024;02:24;5,332;
29.03.2024;01:54;5,333;
29.03.2024;01:39;5,332;
29.03.2024;01:24;5,333;
29.03.2024;01:09;5,333;
29.03.2024;00:54;5,332;
29.03.2024;00:39;5,333;
29.03.2024;00:09;5,333;
28.03.2024;23:54;5,333;
28.03.2024;23:39;5,333;
28.03.2024;23:24;5,333;
28.03.2024;23:09;5,333;
28.03.2024;22:54;5,333;
28.03.2024;22:39;5,333;
28.03.2024;22:24;5,334;
28.03.2024;22:09;5,334;
28.03.2024;21:54;5,334;
28.03.2024;21:24;5,335;
28.03.2024;20:54;5,335;
28.03.2024;20:39;5,335;
28.03.2024;20:24;5,335;
28.03.2024;20:09;5,335;
28.03.2024;19:54;5,335;
28.03.2024;19:39;5,336;
28.03.2024;19:24;5,335;
28.03.2024;19:09;5,334;
28.03.2024;18:54;5,335;
28.03.2024;18:39;5,336;
28.03.2024;18:24;5,336;
28.03.2024;18:09;5,336;
28.03.2024;17:54;5,336;
28.03.2024;17:39;5,336;
28.03.2024;17:24;5,336;
28.03.2024;17:09;5,336;
28.03.2024;16:54;5,336;
28.03.2024;16:39;5,336;
28.03.2024;16:24;5,336;
28.03.2024;16:09;5,336;
28.03.2024;15:54;5,336;
28.03.2024;15:39;5,336;
28.03.2024;15:24;5,336;
28.03.2024;15:09;5,336;
28.03.2024;14:54;5,337;
28.03.2024;14:39;5,337;
28.03.2024;14:24;5,337;
28.03.2024;14:09;5,338;
28.03.2024;13:54;5,338;
28.03.2024;13:39;5,338;
28.03.2024;13:24;5,337;
28.03.2024;13:09;5,338;
28.03.2024;12:39;5,338;
28.03.2024;12:24;5,337;
28.03.2024;12:09;5,337;
28.03.2024;11:54;5,337;
28.03.2024;11:39;5,337;
28.03.2024;11:24;5,338;
28.03.2024;11:09;5,337;
28.03.2024;10:54;5,337;
28.03.2024;10:39;5,337;
28.03.2024;10:24;5,338;
28.03.2024;10:09;5,337;
28.03.2024;09:54;5,338;
28.03.2024;09:39;5,338;
28.03.2024;09:24;5,337;
28.03.2024;09:09;5,337;
28.03.2024;08:54;5,338;
28.03.2024;08:39;5,337;
28.03.2024;08:24;5,337;
28.03.2024;07:54;5,337;
28.03.2024;07:39;5,338;
28.03.2024;07:24;5,338;
28.03.2024;06:54;5,338;
28.03.2024;06:39;5,338;
28.03.2024;06:24;5,338;
28.03.2024;06:09;5,339;
28.03.2024;05:54;5,338;
28.03.2024;05:24;5,339;
28.03.2024;05:09;5,338;
28.03.2024;04:39;5,339;
28.03.2024;04:24;5,338;
28.03.2024;04:09;5,339;
28.03.2024;03:39;5,338;
28.03.2024;03:24;5,339;
28.03.2024;03:09;5,339;
28.03.2024;02:54;5,339;
28.03.2024;02:39;5,339;
28.03.2024;02:24;5,338;
28.03.2024;02:09;5,339;
28.03.2024;01:54;5,339;
28.03.2024;01:39;5,34;
28.03.2024;01:24;5,34;
28.03.2024;01:09;5,34;
28.03.2024;00:54;5,34;
28.03.2024;00:39;5,34;
28.03.2024;00:24;5,34;
28.03.2024;00:09;5,34;
27.03.2024;23:54;5,34;
27.03.2024;23:39;5,34;
27.03.2024;23:24;5,34;
27.03.2024;23:09;5,34;
27.03.2024;22:54;5,34;
27.03.2024;22:39;5,34;
27.03.2024;22:09;5,34;
27.03.2024;21:54;5,341;
27.03.2024;21:39;5,341;
27.03.2024;21:24;5,34;
27.03.2024;21:09;5,341;
27.03.2024;20:54;5,341;
27.03.2024;20:39;5,341;
27.03.2024;20:09;5,341;
27.03.2024;19:54;5,341;
27.03.2024;19:39;5,341;
27.03.2024;19:24;5,341;
27.03.2024;19:09;5,342;
27.03.2024;18:54;5,341;
27.03.2024;18:24;5,341;
27.03.2024;18:09;5,341;
27.03.2024;17:54;5,341;
27.03.2024;17:39;5,341;
27.03.2024;17:24;5,341;
27.03.2024;17:09;5,342;
27.03.2024;16:54;5,342;
27.03.2024;16:39;5,342;
27.03.2024;16:24;5,341;
27.03.2024;16:09;5,342;
27.03.2024;15:54;5,342;
27.03.2024;15:39;5,343;
27.03.2024;15:24;5,342;
27.03.2024;15:09;5,342;
27.03.2024;14:54;5,342;
27.03.2024;14:24;5,342;
27.03.2024;14:09;5,342;
27.03.2024;13:39;5,343;
27.03.2024;13:24;5,343;
27.03.2024;13:09;5,343;
27.03.2024;12:54;5,343;
27.03.2024;12:39;5,343;
27.03.2024;12:09;5,342;
27.03.2024;11:39;5,344;
27.03.2024;11:24;5,343;
27.03.2024;11:09;5,343;
27.03.2024;10:54;5,343;
27.03.2024;10:39;5,343;
27.03.2024;10:24;5,343;
27.03.2024;10:09;5,343;
27.03.2024;09:54;5,343;
27.03.2024;09:39;5,343;
27.03.2024;09:24;5,343;
27.03.2024;09:09;5,344;
27.03.2024;08:54;5,343;
27.03.2024;08:39;5,343;
27.03.2024;08:24;5,344;
27.03.2024;08:09;5,343;
27.03.2024;07:54;5,344;
27.03.2024;07:39;5,344;
27.03.2024;07:24;5,343;
27.03.2024;07:09;5,344;
27.03.2024;06:54;5,344;
27.03.2024;06:39;5,343;
27.03.2024;06:24;5,344;
27.03.2024;06:09;5,344;
27.03.2024;05:39;5,344;
27.03.2024;05:24;5,343;
27.03.2024;05:09;5,345;
27.03.2024;04:39;5,344;
27.03.2024;04:24;5,344;
27.03.2024;04:09;5,345;
27.03.2024;03:54;5,345;
27.03.2024;03:39;5,344;
27.03.2024;03:24;5,345;
27.03.2024;03:09;5,344;
27.03.2024;02:54;5,345;
27.03.2024;02:39;5,345;
27.03.2024;02:24;5,345;
27.03.2024;02:09;5,345;
27.03.2024;01:54;5,345;
27.03.2024;01:39;5,345;
27.03.2024;01:24;5,345;
27.03.2024;01:09;5,345;
27.03.2024;00:54;5,345;
27.03.2024;00:39;5,345;
27.03.2024;00:09;5,345;
26.03.2024;23:39;5,346;
26.03.2024;23:24;5,346;
26.03.2024;23:09;5,345;
26.03.2024;22:54;5,345;
26.03.2024;22:39;5,346;
26.03.2024;22:24;5,346;
26.03.2024;22:09;5,346;
26.03.2024;21:54;5,345;
26.03.2024;21:39;5,345;
26.03.2024;21:24;5,346;
26.03.2024;21:09;5,346;
26.03.2024;20:39;5,346;
26.03.2024;20:24;5,346;
26.03.2024;19:54;5,346;
26.03.2024;19:39;5,347;
26.03.2024;19:24;5,346;
26.03.2024;19:09;5,346;
26.03.2024;18:54;5,347;
26.03.2024;18:24;5,347;
26.03.2024;18:09;5,347;
26.03.2024;17:54;5,347;
26.03.2024;17:39;5,347;
26.03.2024;17:24;5,347;
26.03.2024;17:09;5,348;
26.03.2024;16:54;5,347;
26.03.2024;16:39;5,348;
26.03.2024;16:24;5,348;
26.03.2024;16:09;5,348;
26.03.2024;15:54;5,347;
26.03.2024;15:39;5,348;
26.03.2024;15:24;5,347;
26.03.2024;15:09;5,347;
26.03.2024;14:54;5,347;
26.03.2024;14:39;5,348;
26.03.2024;14:24;5,348;
26.03.2024;14:09;5,347;
26.03.2024;13:54;5,348;
26.03.2024;13:39;5,348;
26.03.2024;13:09;5,348;
26.03.2024;12:54;5,347;
26.03.2024;12:09;5,348;
26.03.2024;11:09;5,348;
26.03.2024;10:54;5,348;
26.03.2024;10:39;5,348;
26.03.2024;10:24;5,348;
26.03.2024;10:09;5,349;
26.03.2024;09:54;5,348;
26.03.2024;09:39;5,349;
26.03.2024;09:24;5,348;
26.03.2024;09:09;5,348;
26.03.2024;08:54;5,348;
26.03.2024;08:39;5,348;
26.03.2024;08:09;5,349;
26.03.2024;07:54;5,349;
26.03.2024;07:39;5,348;
26.03.2024;07:24;5,349;
26.03.2024;07:09;5,348;
26.03.2024;06:54;5,349;
26.03.2024;06:39;5,349;
26.03.2024;06:24;5,349;
26.03.2024;06:09;5,348;
26.03.2024;05:54;5,349;
26.03.2024;05:39;5,349;
26.03.2024;05:24;5,348;
26.03.2024;05:09;5,349;
26.03.2024;04:54;5,349;
26.03.2024;04:39;5,349;
26.03.2024;04:24;5,349;
26.03.2024;04:09;5,349;
26.03.2024;03:54;5,349;
26.03.2024;03:39;5,349;
26.03.2024;03:24;5,349;
26.03.2024;03:09;5,349;
26.03.2024;02:54;5,349;
26.03.2024;02:39;5,349;
26.03.2024;01:24;5,349;
26.03.2024;01:09;5,35;
26.03.2024;00:54;5,349;
26.03.2024;00:39;5,349;
26.03.2024;00:24;5,349;
25.03.2024;23:54;5,349;
25.03.2024;23:39;5,349;
25.03.2024;23:24;5,35;
25.03.2024;23:09;5,35;
25.03.2024;22:54;5,35;
25.03.2024;22:39;5,349;
25.03.2024;21:54;5,35;
25.03.2024;21:39;5,35;
25.03.2024;21:24;5,35;
25.03.2024;21:09;5,35;
25.03.2024;20:54;5,35;
25.03.2024;20:39;5,35;
25.03.2024;20:09;5,35;
25.03.2024;19:54;5,35;
25.03.2024;19:39;5,35;
25.03.2024;19:24;5,35;
25.03.2024;19:09;5,35;
25.03.2024;18:39;5,351;
25.03.2024;18:24;5,351;
25.03.2024;18:09;5,351;
25.03.2024;17:54;5,35;
25.03.2024;17:39;5,35;
25.03.2024;17:24;5,35;
25.03.2024;17:09;5,35;
25.03.2024;16:54;5,35;
25.03.2024;16:39;5,351;
25.03.2024;16:24;5,35;
25.03.2024;15:54;5,351;
25.03.2024;15:39;5,35;
25.03.2024;15:24;5,35;
25.03.2024;15:09;5,35;
25.03.2024;14:54;5,351;
25.03.2024;14:39;5,35;
25.03.2024;14:24;5,35;
25.03.2024;14:09;5,351;
25.03.2024;13:54;5,351;
25.03.2024;13:39;5,351;
25.03.2024;13:24;5,351;
25.03.2024;13:09;5,351;
25.03.2024;12:54;5,351;
25.03.2024;12:39;5,351;
25.03.2024;12:24;5,35;
25.03.2024;12:09;5,35;
25.03.2024;11:54;5,352;
25.03.2024;11:39;5,35;
25.03.2024;11:24;5,351;
25.03.2024;11:09;5,351;
25.03.2024;10:39;5,351;
25.03.2024;10:24;5,351;
25.03.2024;09:54;5,351;
25.03.2024;09:39;5,351;
25.03.2024;09:24;5,352;
25.03.2024;09:09;5,352;
25.03.2024;08:39;5,351;
25.03.2024;08:24;5,351;
25.03.2024;08:09;5,351;
25.03.2024;07:54;5,351;
25.03.2024;07:39;5,352;
25.03.2024;07:24;5,351;
25.03.2024;07:09;5,351;
25.03.2024;06:54;5,35;
25.03.2024;06:39;5,352;
25.03.2024;06:24;5,352;
25.03.2024;06:09;5,352;
25.03.2024;05:54;5,351;
25.03.2024;05:39;5,351;
25.03.2024;05:09;5,352;
25.03.2024;04:54;5,352;
25.03.2024;04:39;5,352;
25.03.2024;04:24;5,351;
25.03.2024;04:09;5,352;
25.03.2024;03:54;5,352;
25.03.2024;03:39;5,352;
25.03.2024;03:24;5,351;
25.03.2024;03:09;5,352;
25.03.2024;02:54;5,352;
25.03.2024;02:39;5,352;
25.03.2024;02:24;5,352;
25.03.2024;01:54;5,352;
25.03.2024;01:39;5,352;
25.03.2024;01:24;5,352;
25.03.2024;01:09;5,352;
25.03.2024;00:54;5,352;
25.03.2024;00:39;5,352;
25.03.2024;00:24;5,352;
25.03.2024;00:09;5,352;
24.03.2024;23:54;5,352;
24.03.2024;23:39;5,352;
24.03.2024;23:24;5,352;
24.03.2024;23:09;5,352;
24.03.2024;22:54;5,353;
24.03.2024;22:39;5,352;
24.03.2024;22:24;5,352;
24.03.2024;22:09;5,353;
24.03.2024;21:54;5,352;
24.03.2024;21:39;5,352;
24.03.2024;21:24;5,352;
24.03.2024;21:09;5,353;
24.03.2024;20:54;5,353;
24.03.2024;20:39;5,353;
24.03.2024;20:24;5,353;
24.03.2024;20:09;5,353;
24.03.2024;19:54;5,353;
24.03.2024;19:39;5,353;
24.03.2024;19:24;5,352;
24.03.2024;19:09;5,353;
24.03.2024;18:39;5,354;
24.03.2024;18:24;5,353;
24.03.2024;18:09;5,354;
24.03.2024;17:54;5,354;
24.03.2024;17:39;5,354;
24.03.2024;17:24;5,354;
24.03.2024;17:09;5,353;
24.03.2024;16:54;5,354;
24.03.2024;16:39;5,353;
24.03.2024;16:24;5,353;
24.03.2024;16:09;5,354;
24.03.2024;15:54;5,354;
24.03.2024;15:39;5,355;
24.03.2024;15:24;5,355;
24.03.2024;15:09;5,354;
24.03.2024;14:54;5,355;
24.03.2024;14:39;5,354;
24.03.2024;14:24;5,355;
24.03.2024;14:09;5,354;
24.03.2024;13:54;5,355;
24.03.2024;13:39;5,355;
24.03.2024;13:24;5,354;
24.03.2024;13:09;5,354;
24.03.2024;12:54;5,355;
24.03.2024;12:39;5,355;
24.03.2024;12:24;5,355;
24.03.2024;12:09;5,355;
24.03.2024;11:54;5,355;
24.03.2024;11:39;5,354;
24.03.2024;11:24;5,354;
24.03.2024;11:09;5,355;
24.03.2024;10:54;5,354;
24.03.2024;10:39;5,354;
24.03.2024;10:24;5,354;
24.03.2024;10:09;5,355;
24.03.2024;09:39;5,354;
24.03.2024;09:24;5,355;
24.03.2024;09:09;5,354;
24.03.2024;08:54;5,355;
24.03.2024;08:39;5,355;
24.03.2024;08:24;5,355;
24.03.2024;08:09;5,355;
24.03.2024;07:54;5,355;
24.03.2024;07:39;5,355;
24.03.2024;07:09;5,355;
24.03.2024;06:54;5,355;
24.03.2024;06:39;5,355;
24.03.2024;06:24;5,355;
24.03.2024;06:09;5,355;
24.03.2024;05:39;5,355;
24.03.2024;05:24;5,355;
24.03.2024;05:09;5,355;
24.03.2024;04:54;5,355;
24.03.2024;04:39;5,355;
24.03.2024;04:24;5,355;
24.03.2024;04:09;5,355;
24.03.2024;03:54;5,355;
24.03.2024;03:39;5,355;
24.03.2024;03:24;5,355;
24.03.2024;03:09;5,355;
24.03.2024;02:54;5,356;
24.03.2024;02:39;5,356;
24.03.2024;02:24;5,355;
24.03.2024;02:09;5,356;
24.03.2024;01:54;5,356;
24.03.2024;01:39;5,355;
24.03.2024;01:24;5,355;
24.03.2024;01:09;5,356;
24.03.2024;00:54;5,356;
24.03.2024;00:39;5,355;
24.03.2024;00:24;5,356;
24.03.2024;00:09;5,356;
23.03.2024;23:39;5,356;
23.03.2024;23:24;5,356;
23.03.2024;23:09;5,356;
23.03.2024;22:54;5,357;
23.03.2024;22:39;5,356;
23.03.2024;22:24;5,356;
23.03.2024;22:09;5,356;
23.03.2024;21:54;5,357;
23.03.2024;21:39;5,356;
23.03.2024;21:24;5,356;
23.03.2024;21:09;5,356;
23.03.2024;20:54;5,356;
23.03.2024;20:39;5,356;
23.03.2024;20:24;5,356;
23.03.2024;20:09;5,357;
23.03.2024;19:54;5,356;
23.03.2024;19:39;5,356;
23.03.2024;19:24;5,357;
23.03.2024;19:09;5,356;
23.03.2024;18:54;5,357;
23.03.2024;18:39;5,357;
23.03.2024;18:24;5,357;
23.03.2024;18:09;5,358;
23.03.2024;17:54;5,357;
23.03.2024;17:39;5,357;
23.03.2024;17:24;5,356;
23.03.2024;17:09;5,358;
23.03.2024;16:54;5,357;
23.03.2024;16:39;5,357;
23.03.2024;16:24;5,357;
23.03.2024;16:09;5,358;
23.03.2024;15:54;5,357;
23.03.2024;15:39;5,358;
23.03.2024;15:24;5,358;
23.03.2024;15:09;5,358;
23.03.2024;14:54;5,358;
23.03.2024;14:39;5,358;
23.03.2024;14:24;5,358;
23.03.2024;14:09;5,358;
23.03.2024;13:54;5,358;
23.03.2024;13:39;5,358;
23.03.2024;13:24;5,358;
23.03.2024;13:09;5,358;
23.03.2024;12:54;5,358;
23.03.2024;12:39;5,358;
23.03.2024;12:24;5,359;
23.03.2024;12:09;5,358;
23.03.2024;11:54;5,358;
23.03.2024;11:39;5,358;
23.03.2024;11:24;5,358;
23.03.2024;11:09;5,358;
23.03.2024;10:54;5,358;
23.03.2024;10:39;5,358;
23.03.2024;10:24;5,358;
23.03.2024;10:09;5,358;
23.03.2024;09:54;5,359;
23.03.2024;09:39;5,358;
23.03.2024;09:24;5,358;
23.03.2024;09:09;5,358;
23.03.2024;08:54;5,359;
23.03.2024;08:39;5,358;
23.03.2024;08:24;5,359;
23.03.2024;08:09;5,358;
23.03.2024;07:54;5,359;
23.03.2024;07:39;5,359;
23.03.2024;07:24;5,359;
23.03.2024;07:09;5,358;
23.03.2024;06:54;5,358;
23.03.2024;06:39;5,359;
23.03.2024;06:24;5,358;
23.03.2024;06:09;5,359;
23.03.2024;05:54;5,359;
23.03.2024;05:39;5,359;
23.03.2024;05:24;5,358;
23.03.2024;05:09;5,359;
23.03.2024;04:54;5,358;
23.03.2024;04:39;5,359;
23.03.2024;04:24;5,359;
23.03.2024;04:09;5,359;
23.03.2024;03:54;5,359;
23.03.2024;03:39;5,359;
23.03.2024;03:24;5,359;
23.03.2024;03:09;5,359;
23.03.2024;02:54;5,359;
23.03.2024;02:39;5,359;
23.03.2024;02:24;5,36;
23.03.2024;02:09;5,36;
23.03.2024;01:54;5,359;
23.03.2024;01:39;5,359;
23.03.2024;01:24;5,36;
23.03.2024;01:09;5,36;
23.03.2024;00:54;5,36;
23.03.2024;00:39;5,359;
23.03.2024;00:24;5,36;
23.03.2024;00:09;5,36;
22.03.2024;23:54;5,361;
22.03.2024;23:39;5,359;
22.03.2024;23:24;5,36;
22.03.2024;22:54;5,36;
22.03.2024;22:39;5,361;
22.03.2024;22:24;5,36;
22.03.2024;22:09;5,361;
22.03.2024;21:54;5,361;
22.03.2024;21:39;5,361;
22.03.2024;21:24;5,36;
22.03.2024;21:09;5,361;
22.03.2024;20:54;5,361;
22.03.2024;20:39;5,361;
22.03.2024;20:24;5,361;
22.03.2024;20:09;5,361;
22.03.2024;19:54;5,362;
22.03.2024;19:39;5,363;
22.03.2024;19:24;5,362;
22.03.2024;19:09;5,362;
22.03.2024;18:54;5,362;
22.03.2024;18:39;5,362;
22.03.2024;18:24;5,362;
22.03.2024;18:09;5,362;
22.03.2024;17:54;5,364;
22.03.2024;17:39;5,362;
22.03.2024;17:24;5,363;
22.03.2024;17:09;5,363;
22.03.2024;16:54;5,363;
22.03.2024;16:39;5,363;
22.03.2024;16:24;5,363;
22.03.2024;16:09;5,363;
22.03.2024;15:54;5,363;
22.03.2024;15:39;5,364;
22.03.2024;15:24;5,364;
22.03.2024;14:54;5,364;
22.03.2024;14:39;5,364;
22.03.2024;14:24;5,364;
22.03.2024;14:09;5,364;
22.03.2024;13:54;5,364;
22.03.2024;13:39;5,364;
22.03.2024;13:24;5,365;
22.03.2024;13:09;5,365;
22.03.2024;12:54;5,365;
22.03.2024;12:39;5,365;
22.03.2024;12:24;5,365;
22.03.2024;12:09;5,365;
22.03.2024;11:54;5,365;
22.03.2024;11:39;5,366;
22.03.2024;11:24;5,365;
22.03.2024;11:09;5,365;
22.03.2024;10:39;5,366;
22.03.2024;10:24;5,366;
22.03.2024;10:09;5,367;
22.03.2024;09:54;5,366;
22.03.2024;09:39;5,366;
22.03.2024;08:54;5,367;
22.03.2024;08:39;5,366;
22.03.2024;08:24;5,367;
22.03.2024;08:09;5,368;
22.03.2024;07:54;5,368;
22.03.2024;07:39;5,367;
22.03.2024;07:24;5,368;
22.03.2024;07:09;5,367;
22.03.2024;06:54;5,367;
22.03.2024;06:39;5,368;
22.03.2024;06:24;5,369;
22.03.2024;05:54;5,368;
22.03.2024;05:39;5,367;
22.03.2024;05:24;5,368;
22.03.2024;05:09;5,369;
22.03.2024;04:54;5,368;
22.03.2024;04:39;5,369;
22.03.2024;04:24;5,369;
22.03.2024;03:54;5,369;
22.03.2024;03:39;5,369;
22.03.2024;03:24;5,368;
22.03.2024;03:09;5,369;
22.03.2024;02:54;5,37;
22.03.2024;02:39;5,369;
22.03.2024;02:24;5,37;
22.03.2024;02:09;5,37;
22.03.2024;01:54;5,37;
22.03.2024;01:39;5,37;
22.03.2024;01:24;5,37;
22.03.2024;01:09;5,37;
22.03.2024;00:54;5,37;
22.03.2024;00:39;5,37;
22.03.2024;00:24;5,37;
21.03.2024;23:54;5,37;
21.03.2024;23:39;5,371;
21.03.2024;23:24;5,371;
21.03.2024;23:09;5,372;
21.03.2024;22:54;5,372;
21.03.2024;22:39;5,371;
21.03.2024;22:24;5,371;
21.03.2024;22:09;5,371;
21.03.2024;21:54;5,371;
21.03.2024;21:39;5,371;
21.03.2024;21:24;5,371;
21.03.2024;21:09;5,372;
21.03.2024;20:54;5,371;
21.03.2024;20:39;5,371;
21.03.2024;20:24;5,372;
21.03.2024;19:54;5,371;
21.03.2024;19:39;5,372;
21.03.2024;19:24;5,372;
21.03.2024;19:09;5,372;
21.03.2024;18:54;5,372;
21.03.2024;18:39;5,373;
21.03.2024;18:24;5,372;
21.03.2024;18:09;5,373;
21.03.2024;17:54;5,373;
21.03.2024;17:39;5,373;
21.03.2024;17:24;5,373;
21.03.2024;17:09;5,373;
21.03.2024;16:54;5,373;
21.03.2024;16:39;5,373;
21.03.2024;16:24;5,372;
21.03.2024;16:09;5,373;
21.03.2024;15:54;5,372;
21.03.2024;15:39;5,373;
21.03.2024;15:24;5,373;
21.03.2024;15:09;5,373;
21.03.2024;14:54;5,373;
21.03.2024;14:39;5,373;
21.03.2024;14:24;5,373;
21.03.2024;13:54;5,374;
21.03.2024;12:39;5,373;
21.03.2024;12:24;5,374;
21.03.2024;12:09;5,373;
21.03.2024;11:54;5,374;
21.03.2024;11:39;5,374;
21.03.2024;11:24;5,374;
21.03.2024;11:09;5,374;
21.03.2024;10:54;5,373;
21.03.2024;10:39;5,374;
21.03.2024;10:24;5,374;
21.03.2024;10:09;5,375;
21.03.2024;09:54;5,374;
21.03.2024;09:39;5,375;
21.03.2024;09:24;5,374;
21.03.2024;09:09;5,375;
21.03.2024;08:54;5,375;
21.03.2024;08:39;5,375;
21.03.2024;08:24;5,374;
21.03.2024;08:09;5,375;
21.03.2024;07:54;5,375;
21.03.2024;07:39;5,375;
21.03.2024;07:24;5,375;
21.03.2024;07:09;5,376;
21.03.2024;06:39;5,375;
21.03.2024;06:24;5,375;
21.03.2024;06:09;5,376;
21.03.2024;05:54;5,376;
21.03.2024;05:39;5,375;
21.03.2024;05:24;5,375;
21.03.2024;05:09;5,376;
21.03.2024;04:39;5,376;
21.03.2024;04:24;5,376;
21.03.2024;04:09;5,376;
21.03.2024;03:54;5,376;
21.03.2024;03:39;5,377;
21.03.2024;03:24;5,376;
21.03.2024;03:09;5,377;
21.03.2024;02:54;5,376;
21.03.2024;02:39;5,376;
21.03.2024;02:24;5,376;
21.03.2024;02:09;5,377;
21.03.2024;01:54;5,377;
21.03.2024;01:39;5,377;
21.03.2024;01:24;5,377;
21.03.2024;01:09;5,378;
21.03.2024;00:54;5,377;
21.03.2024;00:39;5,377;
21.03.2024;00:24;5,378;
20.03.2024;23:54;5,378;
20.03.2024;23:39;5,378;
20.03.2024;23:24;5,378;
20.03.2024;23:09;5,378;
20.03.2024;22:54;5,378;
20.03.2024;22:39;5,378;
20.03.2024;22:24;5,378;
20.03.2024;22:09;5,377;
20.03.2024;21:54;5,378;
20.03.2024;21:24;5,378;
20.03.2024;21:09;5,378;
20.03.2024;20:54;5,379;
20.03.2024;20:39;5,378;
20.03.2024;20:24;5,378;
20.03.2024;19:54;5,378;
20.03.2024;19:39;5,379;
20.03.2024;19:24;5,379;
20.03.2024;19:09;5,379;
20.03.2024;18:54;5,379;
20.03.2024;18:39;5,379;
20.03.2024;18:24;5,379;
20.03.2024;18:09;5,379;
20.03.2024;17:54;5,38;
20.03.2024;17:39;5,38;
20.03.2024;17:24;5,379;
20.03.2024;17:09;5,38;
20.03.2024;16:39;5,38;
20.03.2024;16:24;5,379;
20.03.2024;15:39;5,38;
20.03.2024;15:24;5,379;
20.03.2024;15:09;5,38;
20.03.2024;14:54;5,38;
20.03.2024;14:39;5,38;
20.03.2024;14:09;5,38;
20.03.2024;13:54;5,38;
20.03.2024;13:39;5,381;
20.03.2024;13:24;5,38;
20.03.2024;13:09;5,38;
20.03.2024;12:54;5,381;
20.03.2024;12:39;5,381;
20.03.2024;12:24;5,38;
20.03.2024;12:09;5,381;
20.03.2024;11:54;5,381;
20.03.2024;11:39;5,381;
20.03.2024;11:24;5,381;
20.03.2024;11:09;5,381;
20.03.2024;10:54;5,381;
20.03.2024;10:39;5,381;
20.03.2024;10:24;5,381;
20.03.2024;10:09;5,381;
20.03.2024;09:54;5,381;
20.03.2024;09:39;5,382;
20.03.2024;09:24;5,381;
20.03.2024;09:09;5,382;
20.03.2024;08:54;5,382;
20.03.2024;08:39;5,382;
20.03.2024;08:24;5,381;
20.03.2024;08:09;5,382;
20.03.2024;07:54;5,381;
20.03.2024;07:39;5,382;
20.03.2024;07:09;5,382;
20.03.2024;06:54;5,382;
20.03.2024;06:39;5,382;
20.03.2024;06:24;5,382;
20.03.2024;06:09;5,382;
20.03.2024;05:54;5,382;
20.03.2024;05:39;5,382;
20.03.2024;05:24;5,382;
20.03.2024;05:09;5,382;
20.03.2024;04:54;5,382;
20.03.2024;04:39;5,382;
20.03.2024;04:24;5,382;
20.03.2024;04:09;5,383;
20.03.2024;03:54;5,382;
20.03.2024;03:39;5,383;
20.03.2024;03:24;5,383;
20.03.2024;02:54;5,383;
20.03.2024;02:39;5,383;
20.03.2024;02:24;5,383;
20.03.2024;02:09;5,383;
20.03.2024;01:54;5,383;
20.03.2024;01:39;5,383;
20.03.2024;01:24;5,383;
20.03.2024;01:09;5,384;
20.03.2024;00:39;5,383;
20.03.2024;00:24;5,383;
20.03.2024;00:09;5,384;
19.03.2024;23:54;5,384;
19.03.2024;23:39;5,384;
19.03.2024;23:24;5,384;
19.03.2024;23:09;5,384;
19.03.2024;22:54;5,384;
19.03.2024;22:39;5,384;
19.03.2024;22:24;5,385;
19.03.2024;22:09;5,385;
19.03.2024;21:54;5,385;
19.03.2024;21:39;5,385;
19.03.2024;21:24;5,384;
19.03.2024;21:09;5,385;
19.03.2024;20:54;5,385;
19.03.2024;20:39;5,385;
19.03.2024;20:24;5,386;
19.03.2024;20:09;5,386;
19.03.2024;19:54;5,385;
19.03.2024;19:39;5,385;
19.03.2024;19:09;5,386;
19.03.2024;18:54;5,385;
19.03.2024;18:24;5,386;
19.03.2024;18:09;5,386;
19.03.2024;17:54;5,386;
19.03.2024;17:39;5,386;
19.03.2024;17:24;5,386;
19.03.2024;17:09;5,386;
19.03.2024;16:54;5,386;
19.03.2024;16:39;5,386;
19.03.2024;16:24;5,387;
19.03.2024;16:09;5,386;
19.03.2024;15:54;5,387;
19.03.2024;15:39;5,386;
19.03.2024;15:24;5,387;
19.03.2024;15:09;5,387;
19.03.2024;14:54;5,387;
19.03.2024;14:39;5,387;
19.03.2024;14:09;5,387;
19.03.2024;13:24;5,387;
19.03.2024;13:09;5,388;
19.03.2024;12:54;5,388;
19.03.2024;12:24;5,388;
19.03.2024;12:09;5,388;
19.03.2024;11:54;5,388;
19.03.2024;11:39;5,389;
19.03.2024;11:24;5,387;
19.03.2024;11:09;5,387;
19.03.2024;10:54;5,388;
19.03.2024;10:39;5,389;
19.03.2024;10:24;5,388;
19.03.2024;10:09;5,388;
19.03.2024;09:54;5,388;
19.03.2024;09:39;5,388;
19.03.2024;09:24;5,388;
19.03.2024;09:09;5,388;
19.03.2024;08:54;5,388;
19.03.2024;08:39;5,388;
19.03.2024;08:24;5,388;
19.03.2024;08:09;5,388;
19.03.2024;07:54;5,388;
19.03.2024;07:39;5,389;
19.03.2024;07:24;5,388;
19.03.2024;07:09;5,388;
19.03.2024;06:54;5,388;
19.03.2024;06:39;5,388;
19.03.2024;06:24;5,388;
19.03.2024;06:09;5,388;
19.03.2024;05:39;5,389;
19.03.2024;05:24;5,389;
19.03.2024;05:09;5,388;
19.03.2024;04:54;5,388;
19.03.2024;04:24;5,389;
19.03.2024;04:09;5,389;
19.03.2024;03:39;5,389;
19.03.2024;03:24;5,388;
19.03.2024;03:09;5,389;
19.03.2024;02:54;5,389;
19.03.2024;02:39;5,39;
19.03.2024;02:24;5,39;
19.03.2024;02:09;5,39;
19.03.2024;01:54;5,39;
19.03.2024;01:39;5,39;
19.03.2024;01:24;5,389;
19.03.2024;01:09;5,39;
19.03.2024;00:54;5,39;
19.03.2024;00:39;5,39;
19.03.2024;00:24;5,39;
19.03.2024;00:09;5,389;
18.03.2024;23:54;5,39;
18.03.2024;23:39;5,391;
18.03.2024;23:24;5,391;
18.03.2024;23:09;5,391;
18.03.2024;22:54;5,39;
18.03.2024;22:39;5,39;
18.03.2024;22:24;5,39;
18.03.2024;22:09;5,39;
18.03.2024;21:54;5,391;
18.03.2024;21:24;5,391;
18.03.2024;21:09;5,39;
18.03.2024;20:54;5,392;
18.03.2024;20:39;5,391;
18.03.2024;20:24;5,391;
18.03.2024;20:09;5,392;
18.03.2024;19:54;5,391;
18.03.2024;19:39;5,392;
18.03.2024;19:24;5,392;
18.03.2024;19:09;5,392;
18.03.2024;18:24;5,392;
18.03.2024;17:39;5,392;
18.03.2024;17:24;5,392;
18.03.2024;17:09;5,392;
18.03.2024;16:54;5,392;
18.03.2024;16:39;5,392;
18.03.2024;16:24;5,392;
18.03.2024;16:09;5,392;
18.03.2024;15:54;5,392;
18.03.2024;15:39;5,392;
18.03.2024;15:24;5,393;
18.03.2024;15:09;5,393;
18.03.2024;14:54;5,393;
18.03.2024;14:39;5,393;
18.03.2024;14:24;5,393;
18.03.2024;14:09;5,394;
18.03.2024;13:54;5,394;
18.03.2024;13:39;5,393;
18.03.2024;13:24;5,393;
18.03.2024;13:09;5,393;
18.03.2024;12:54;5,393;
18.03.2024;12:39;5,393;
18.03.2024;12:24;5,393;
18.03.2024;12:09;5,394;
18.03.2024;11:54;5,393;